DECAYED

STARLINK-2264, 48028 (Decayed)

Orbit data source: Space-Track

STARLINK-2264, 48028 was a payload satellite owned by SpaceX/Seattle (US) in LEO that was launched on Wed, 24 Mar 2021 UTC via an FALCON 9 launch vehicle from the Air Force Eastern Test Range (AFETR). Payload-class satellites include a variety of spacecraft equipped with specific instruments for various scientific and technological missions. These include communications satellites like Starlink; space stations such as the ISS; scientific satellites like the Hubble; Earth observation satellites from companies like Planet Labs, Umbra, and HawkEye 360; GPS; miniature CubeSats for education and research; and military/defense satellites.

Not visible in the next 10 days
Identifier
48028, 2021-024BD
Orbit
Decayed
Country
Flag of USUS
Related business
Manufacturer
SpaceX/Seattle
Mission
Decayed Commercial Communications
Bus & Motor
STARLINK, Unknown motor
Mass
260 kg wet, ~248 kg dry
Launch date (UTC)
2021-03-24 (5 years ago)
Launch vehicle
FALCON 9
Launch site
Air Force Eastern Test Range (AFETR)
Object type
Payload
Rocket body
Debris
Shape & HBR
Box + 1 Pan, 10.1 m
Radar Cross Section
13.562 m², Large (>1 m²)

Expand to show TLE details & history
Last TLE update: 1 year ago

TLE from 1 year ago
0 STARLINK-2264
1 48028U 21024BD  25122.09064066  .10164035  12509-4  60128-3 0  9995
2 48028  53.0270 197.1937 0006153 353.6080  75.3920 16.41606423228447
Epoch: 2025-05-02T02:10Z
TLE epoch observation values (Epoch: 2025-05-02T02:10:31.353Z)
Latitude
48.41554°
Longitude
1.82189°
Altitude
165.921 km
Speed
7.813 km/s
True Right ascension
16h 58m 49s
True Declination
48° 13' 45"
Sunlit
Object was in full shadow at epoch
Visualization orbit readout
Latitude
Unknown
Longitude
Unknown
Altitude
Unknown
Speed
Unknown
Apparent Right ascension
Unknown
Apparent Declination
Unknown
Sunlit
N/A
Visualization observer readout
Local Sidereal Time
21:26:41
Azimuth
Unknown
Elevation
Unknown
Doppler factor
Unknown
Orbital elements
Apogee altitude
165.848 km
Perigee altitude
157.8 km
Semi-major axis
6,539.961 km
Eccentricity
0.00062
Inclination
53.027°
RAAN
197.1937°
Arg. of periapsis
353.608°
True anomaly
75.46024°
Mean anomaly
75.392°
Eccentric anomaly
75.42612°
Mean motion
4.10375 °/min
Orbital period
87.72 mins
BSTAR
0.00060128
Loading maneuver chart data...
Computing Atmospheric mass density...

Documentation

Showing up to 5 results
|